Location: Bus
(49.1466°N, 1.6216°E)
Time: 05:38:53
(UTC+00:00)

Daily predictions for brighter satellites

Satellite Brightness Start Highest point End
(mag) Time Altitude Azimuth Time Altitude Azimuth Time Altitude Azimuth
Cosmos 2278 Rocket 4.2 00:19:53 22° NE 00:19:53 22° NE 00:21:57 10° NE
CZ-2D R/B 4.4 00:35:21 10° NE 00:37:18 18° ENE 00:37:18 18° ENE
Resurs 1-4 Rocket 4.2 00:40:46 10° NE 00:43:01 20° ENE 00:43:01 20° ENE
SL-16 R/B 3.8 00:48:15 34° ENE 00:48:30 34° ENE 00:54:01 10° N
Cosmos 2369 Rocket 3.9 01:36:58 25° E 01:36:58 25° E 01:40:41 10° NE
Lacrosse 5 3.8 01:41:26 23° ENE 01:41:26 23° ENE 01:43:34 10° ENE
Nadezhda 1 Rocket 4.4 01:35:08 10° N 01:40:49 57° ENE 01:40:49 57° ENE
Lacrosse 4 Rocket 4.0 01:44:01 17° N 01:44:01 17° N 01:45:20 10° NNE
ADEOS II 3.2 01:43:45 10° NNE 01:47:38 41° ENE 01:47:38 41° ENE
Cosmos 2278 Rocket 3.5 02:01:43 32° NNW 02:01:43 32° NNW 02:05:57 10° NNE
Cosmos 1943 Rocket 2.8 02:07:35 52° N 02:07:35 52° N 02:12:03 10° NNE
Cosmos 1386 Rocket 4.5 02:10:36 77° NE 02:10:36 77° NE 02:16:34 10° N
CZ-2D R/B 2.8 02:14:40 10° N 02:18:37 47° NNW 02:18:37 47° NNW
Cosmos 1745 Rocket 3.9 02:20:04 84° NE 02:20:04 84° NE 02:26:05 10° N
MSX 3.8 02:18:44 10° NNE 02:24:15 81° NNE 02:24:15 81° NNE
Resurs 1-4 Rocket 2.8 02:20:05 10° N 02:24:06 44° NNW 02:24:06 44° NNW
ATLAS CENTAUR R/B 2.6 02:31:42 42° ENE 02:31:42 42° ENE 02:34:48 10° NE
CZ-4 R/B 4.3 02:26:08 10° NNE 02:30:17 61° N 02:30:17 61° N
Cosmos 1709 Rocket 4.0 02:30:50 62° SE 02:31:41 70° E 02:37:50 10° NNE
SL-16 R/B 3.1 02:33:19 44° WNW 02:33:19 44° WNW 02:38:00 10° NNW
Cosmos 1867 4.3 02:26:52 10° NNW 02:32:14 52° NE 02:37:33 10° ESE
IRIDIUM 104 4.4 02:36:01 72° N 02:36:01 72° N 02:40:43 10° N
Cosmos 2297 3.7 02:37:31 71° NW 02:37:31 71° NW 02:43:03 10° NNE
IDEFIX/ARIANE 42P 3.1 02:36:36 10° N 02:40:48 48° NW 02:40:48 48° NW
ARGOS Delta rocket 4.3 02:43:37 49° E 02:44:05 51° ENE 02:48:22 10° N
IRIDIUM 114 4.4 02:45:09 69° NNW 02:45:09 69° NNW 02:49:51 10° N
Cosmos 1782 3.9 02:48:59 39° E 02:48:59 39° E 02:52:24 10° NNE
IRIDIUM 103 4.4 02:54:17 61° NW 02:54:17 61° NW 02:58:59 10° N
Cosmos 921 Rocket 3.3 02:54:37 69° NNE 02:54:37 69° NNE 02:58:36 10° NNE
ATLAS 5 CENTAUR R/B 2.8 02:55:37 30° NNW 02:55:37 30° NNW 02:58:47 10° NNE
Cosmos 1933 4.1 02:55:18 50° E 02:55:18 50° E 02:59:04 10° NNE
ALOS 2.6 02:53:59 10° NNE 02:58:36 60° E 02:59:15 54° SE
Helios 1A 3.9 02:59:07 22° SE 03:01:25 46° ENE 03:05:24 10° N
GEOS 3 Rocket 3.9 02:57:12 10° SE 03:02:23 68° NE 03:07:42 10° NW
SeaSat 1 2.3 03:00:03 10° NNE 03:04:58 72° WNW 03:05:15 70° W
Cosmos 1842 Rocket 4.5 03:03:55 34° SE 03:05:15 44° E 03:09:26 10° NNE
Cosmos 2369 Rocket 2.3 03:18:45 50° W 03:19:46 58° WNW 03:25:19 10° NNE
Cosmos 1766 Rocket 4.1 03:16:09 10° NNW 03:19:36 44° NW 03:19:36 44° NW
Lacrosse 5 2.1 03:20:38 48° WNW 03:21:41 59° NNW 03:26:44 10° NE
Envisat 4.4 03:18:14 10° NNE 03:22:54 35° E 03:27:30 10° SSE
Cosmos 2297 Rocket 4.2 03:18:59 10° NNW 03:23:53 28° NE 03:28:44 10° ESE
Cosmos 1833 4.2 03:20:24 10° NW 03:25:59 55° WSW 03:31:34 10° S
Meteor 1-26 Rocket 4.4 03:23:18 25° S 03:26:39 73° E 03:32:24 10° NNE
SL-27 R/B 4.0 03:24:51 10° N 03:27:46 32° ENE 03:30:40 10° SE
ADEOS II 3.1 03:23:52 10° N 03:28:18 28° WNW 03:28:34 28° WNW
USA 276 4.4 03:29:28 15° SE 03:29:28 15° SE 03:30:43 10° ESE
Timation 1 Rocket 4.2 03:23:23 10° NNW 03:29:27 84° WSW 03:35:27 10° SSE
YAOGAN 6 4.2 03:26:55 10° NNE 03:30:09 32° E 03:32:24 16° SSE
BREEZE-M DEB (TANK) 3.1 03:30:12 45° W 03:31:33 85° N 03:34:18 10° E
Cosmos 44 3.1 03:32:24 55° W 03:33:10 67° NW 03:37:51 10° NE
BREEZE-M DEB (TANK) 3.7 03:32:32 33° WSW 03:35:44 72° SSE 03:38:58 10° E
Cosmos 1242 Rocket 3.6 03:32:57 10° NNW 03:34:58 31° NNW 03:34:58 31° NNW
Cosmos 1484 Rocket 4.5 03:33:36 10° NNE 03:36:57 30° E 03:40:20 10° SSE
CZ-2C R/B 3.5 03:32:30 10° NNE 03:37:11 54° E 03:41:32 12° S
ATLAS 2AS CENTAUR R/B 4.4 03:31:00 10° NW 03:37:16 30° NNE 03:43:12 10° E
FENGYUN 3A 3.9 03:34:21 10° N 03:39:38 52° WNW 03:41:21 38° WSW
Cosmos 2227 Rocket 4.5 03:35:27 10° NNW 03:40:03 25° NE 03:44:40 10° E
Cosmos 1656 Rocket 4.2 03:41:49 33° W 03:43:20 40° NW 03:48:31 10° NNE
CZ-2C R/B 2.7 03:38:49 14° S 03:43:34 59° W 03:49:03 10° NNW
Cosmos 2221 2.8 03:45:02 43° W 03:45:33 46° WNW 03:49:46 10° N
Cosmos 923 Rocket 3.9 03:44:02 30° SSW 03:46:39 87° WNW 03:51:54 10° NNE
Cosmos 1943 Rocket 4.0 03:49:05 14° WNW 03:51:18 17° NW 03:54:58 10° N
Cosmos 1812 3.6 03:54:04 30° WNW 03:54:04 30° WNW 03:57:10 10° N
Cosmos 1680 Rocket 3.5 03:51:50 21° SSW 03:55:21 84° ESE 04:00:40 10° NNE
Genesis I 4.2 03:53:38 21° S 03:55:49 42° ESE 03:59:32 10° NE
ERS-2 4.2 03:54:00 10° NNW 03:55:04 13° NW 03:55:04 13° NW
NOSS 3-4 (A) 3.8 03:49:41 10° NW 03:56:34 90° ENE 04:04:24 10° SE
NOSS 3-4 (C) 3.8 03:49:48 10° NW 03:56:40 89° NE 04:04:32 10° SE
CZ-2D R/B 4.1 03:56:59 10° NNW 03:58:54 12° NW 03:59:55 11° WNW
Meteor 1-14 Rocket 4.1 03:55:54 10° NNW 04:01:28 84° W 04:07:02 10° S
CZ-2C R/B 2.4 03:57:27 10° N 04:02:09 60° WNW 04:05:09 23° SW
IRS-1D 4.1 03:59:13 10° N 04:03:45 37° WNW 04:05:41 27° WSW
Resurs 1-4 Rocket 4.2 04:02:47 10° NW 04:03:56 11° NW 04:05:04 10° WNW
Cosmos 1461 4.1 04:00:38 13° S 04:04:10 42° ESE 04:08:28 10° NE
NOSS 3-3 (A) 4.0 04:02:11 26° WSW 04:05:28 63° NW 04:12:08 10° NE
NOSS 3-3 (C) 4.0 04:02:17 26° WSW 04:05:34 64° NW 04:12:14 10° NE
Cosmos 2112 Rocket 4.0 04:01:40 17° SSW 04:05:47 88° ESE 04:11:06 10° NNE
Cosmos 1371 Rocket 3.9 04:00:38 10° NNW 04:05:48 70° WSW 04:10:56 10° SSE
ARIANE 5 R/B 3.1 04:00:47 10° NNE 04:05:54 59° ESE 04:11:02 10° S
RUBIN 8/PSLV 4.5 04:02:16 10° N 04:06:38 69° WNW 04:09:35 19° SSW
Cosmos 1151 Rocket 4.5 04:03:33 10° SSE 04:07:35 39° E 04:11:37 10° NNE
Meteor 2-6 Rocket 4.5 04:03:08 10° S 04:09:04 80° E 04:15:04 10° NNE
ATLAS CENTAUR R/B 2.7 04:07:24 22° WNW 04:09:11 28° NW 04:12:56 10° NNE
Cosmos 2184 Rocket 4.0 04:07:09 12° SSW 04:12:47 61° WNW 04:18:54 10° N
NOSS 2-1 (C) 4.0 04:08:42 10° NW 04:12:51 74° NE 04:18:38 10° SE
Orbus 7S? 3.9 04:05:59 10° WNW 04:13:39 88° SW 04:17:09 10° SE
Cosmos 2056 Rocket 3.4 04:08:33 10° NNW 04:13:41 64° WSW 04:18:52 10° S
Cosmos 1408 Rocket 4.1 04:10:35 10° NNW 04:14:43 38° W 04:18:25 12° SSW
Cosmos 1867 4.1 04:10:47 10° NW 04:15:39 34° WSW 04:20:28 10° S
NOSS 2-1 (D) 3.8 04:13:12 10° NW 04:17:18 80° NE 04:22:55 10° SE
Sich 1 3.0 04:18:37 10° NNW 04:23:03 75° W 04:27:26 10° S
Cosmos 1782 4.2 04:24:21 18° W 04:24:59 19° WNW 04:27:52 10° NNW
Cosmos 1743 2.8 04:21:56 10° N 04:25:41 76° E 04:29:25 10° SSE
Cosmos 1624 Rocket 4.1 04:21:01 10° NNW 04:26:11 52° WSW 04:31:17 10° S
Cosmos 1743 Rocket 3.8 04:24:11 10° NNW 04:28:29 48° W 04:32:46 10° SSW
Cosmos 1420 Rocket 4.1 04:24:27 10° NNW 04:29:28 50° WSW 04:34:27 10° S
SL-19 R/B 4.1 04:26:37 10° N 04:31:51 66° WNW 04:36:59 10° SSW
Cosmos 1633 Rocket 3.9 04:28:59 10° N 04:33:21 54° ENE 04:37:39 10° SSE
COSMOS 2455 3.9 04:28:03 10° S 04:33:44 46° ESE 04:39:28 10° NE
Cosmos 2154 Rocket 4.1 04:29:02 10° SSW 04:35:11 56° WNW 04:41:21 10° N
ALOS 3.7 04:32:09 10° NNW 04:35:32 20° WNW 04:37:42 15° W
USA 32 4.0 04:31:48 10° N 04:37:03 71° W 04:42:16 10° S
Helios 1A 4.3 04:35:34 16° WSW 04:37:04 19° W 04:40:05 10° NW
ATLAS 5 CENTAUR R/B 3.8 04:38:18 10° NW 04:40:40 14° N 04:43:13 10° NNE
GEOS 3 Rocket 4.4 04:36:19 10° S 04:40:44 28° WSW 04:45:17 10° WNW
SeaSat 1 4.2 04:38:34 10° N 04:41:46 18° NW 04:44:56 10° WNW
Meteor 1-27 Rocket 4.3 04:38:21 10° S 04:44:06 65° E 04:49:45 10° NNE
Nadezhda 3 Rocket 4.3 04:38:13 10° NNW 04:44:06 44° W 04:50:02 10° SSW
CZ-2D R/B 3.5 04:45:27 10° N 04:49:45 72° WNW 04:53:55 10° SSW
DMSP B5D2-2 4.0 04:44:43 10° S 04:49:57 71° WSW 04:55:10 10° NNW
GP-B 3.1 04:46:03 10° N 04:50:28 65° W 04:54:50 10° SSW
IRS-1C 4.3 04:45:51 10° N 04:51:05 56° WNW 04:56:16 10° SW
Cosmos 1452 Rocket 3.6 04:45:52 10° NNW 04:51:12 89° ENE 04:56:29 10° SSE
Cosmos 1437 Rocket 2.8 04:47:41 10° N 04:51:36 81° E 04:55:23 10° SSE
Cosmos 192 4.3 04:46:59 10° NNW 04:51:55 73° WSW 04:56:48 10° SSE
Cosmos 1536 2.7 04:49:30 10° NNW 04:53:26 69° W 04:57:22 10° S
USA 281 3.2 04:47:31 10° SSE 04:54:03 68° WSW 05:00:38 10° NNW
Cosmos 962 Rocket 4.5 04:49:39 10° SSW 04:55:45 70° W 05:01:58 10° N
Cosmos 494 Rocket 4.3 04:50:54 10° SSW 04:56:07 71° ESE 05:01:22 10° NNE
Cosmos 2218 Rocket 4.3 04:50:32 10° S 04:56:50 77° E 05:03:16 10° NNE
Cosmos 405 Rocket 2.5 04:56:54 10° S 05:00:32 90° ENE 05:04:11 10° NNE
Envisat 3.6 04:57:16 10° N 05:01:54 36° WNW 05:06:30 10° SW
SL-27 R/B 3.8 04:59:57 10° WNW 05:02:01 16° W 05:04:05 10° SW
Cosmos 1048 Rocket 4.4 04:56:59 10° SSW 05:02:19 74° ESE 05:07:43 10° NNE
YAOGAN 6 4.0 05:00:23 10° NNW 05:03:03 20° WNW 05:05:43 10° WSW
USA 276 2.0 05:00:49 10° WSW 05:03:38 68° SSE 05:06:33 10° E
Cosmos 2369 Rocket 4.0 05:01:43 10° WNW 05:05:04 16° NNW 05:08:25 10° N
Lacrosse 5 3.1 05:00:48 10° WNW 05:05:26 34° N 05:10:06 10° ENE
Cosmos 2341 Rocket 4.1 04:59:32 10° SSW 05:05:54 71° W 05:12:17 10° N
Cosmos 1470 Rocket 3.9 05:01:30 10° N 05:05:56 71° ENE 05:10:17 10° SSE
Meteor 1-11 Rocket 3.8 05:00:35 10° NNW 05:06:02 55° W 05:11:23 10° S
COSMO-SKYMED 1 2.6 05:02:15 10° SSE 05:06:36 83° WSW 05:10:59 10° NNW
SJ-12 4.2 05:03:25 10° NNE 05:07:26 70° ESE 05:11:26 10° S
Cosmos 2297 Rocket 2.2 05:02:45 10° NNW 05:08:22 64° WSW 05:13:57 10° SSE
SL-08 R/B 3.7 05:05:24 10° S 05:10:04 45° W 05:14:41 10° NNW
NOSS 2-1 (E) 4.2 05:06:43 10° NW 05:10:59 49° SW 05:16:56 10° SSE
Cosmos 1484 Rocket 3.9 05:07:56 10° N 05:11:01 24° WNW 05:14:07 10° WSW
NOAA 11 4.5 05:06:57 10° N 05:12:10 49° WNW 05:17:22 10° SW
